Estación municipal de Susqueda - Veïnat del Coll (La Selva, )

Consulta los datos en tiempo real de la estación municipal de Susqueda - Veïnat del Coll





Hora UTC 05:50
Temperatura 16.8 ºC
Humedad 97.5 %
Presión 1022.5 hPa
Pluja 0.0 mm
Velocidad viento 4.4 km/h
Dirección viento SW
Radiación solar 38.9 W/m²

Datos diarios 2026-09-01



Hora UTC (invierno +1h; verano +2h)
Temperatura (ºC) Humedad (%) Presión (hPa) Velocidad viento (km/h) Precipitación (mm) Radiación solar (W/m²)
Hora UTC Aire Humedad Presión Vel. Dir. Vel. Max Dir. Intent. máx 5 min. Rad. Sol.
00:05 17.0 94.2 1023.5 0.6 SW 0.6 SW 0.0 0.1
00:10 16.9 94.2 1023.5 0.0 NNE 0.0 SW 0.0 0.1
00:15 16.8 94.2 1023.5 0.1 W 1.1 W 0.0 0.1
00:20 16.8 94.3 1023.5 1.2 W 3.5 W 0.0 0.1
00:25 16.8 94.4 1023.4 2.7 WSW 4.2 W 0.0 0.1
00:30 16.8 94.6 1023.4 3.1 W 3.9 W 0.0 0.1
00:35 16.8 94.7 1023.3 3.2 W 4.2 WSW 0.0 0.1
00:40 16.8 95.0 1023.3 2.8 W 4.6 W 0.0 0.1
00:45 16.8 94.9 1023.3 2.4 WSW 3.5 W 0.0 0.1
00:50 16.8 94.9 1023.3 1.7 W 3.2 W 0.0 0.1
00:55 16.8 95.3 1023.3 1.2 W 2.1 W 0.0 0.1
01:00 16.8 95.0 1023.3 1.2 W 2.5 W 0.0 0.1
01:05 16.8 95.2 1023.3 2.5 W 3.2 W 0.0 0.1
01:10 16.8 95.2 1023.3 2.3 W 3.2 W 0.0 0.1
01:15 16.7 95.3 1023.3 0.9 W 2.5 W 0.0 0.1
01:20 16.9 95.8 1023.3 1.4 S 3.9 S 0.0 0.1
01:25 17.0 95.8 1023.3 2.5 SSW 3.2 SSW 0.0 0.1
01:30 17.1 95.6 1023.3 1.5 SSW 2.5 SSW 0.0 0.1
01:35 17.1 95.4 1023.3 1.3 SSW 2.1 SSW 0.0 0.1
01:40 17.2 95.3 1023.3 0.4 SW 1.8 WSW 0.0 0.1
01:45 17.2 95.0 1023.3 1.8 SW 3.5 SW 0.0 0.1
01:50 17.3 94.9 1023.3 1.8 SW 3.9 SW 0.0 0.1
01:55 17.3 94.7 1023.2 1.5 SSE 3.2 SE 0.0 0.1
02:00 17.3 94.5 1023.2 0.1 SE 1.1 ESE 0.0 0.1
02:05 17.1 94.3 1023.2 0.6 W 1.8 W 0.0 0.1
02:10 17.1 94.8 1023.2 0.5 SW 2.8 SSW 0.0 0.1
02:15 17.2 95.0 1023.1 0.0 NNE 0.0 SW 0.0 0.1
02:20 17.1 95.1 1023.1 0.5 W 2.1 W 0.0 0.1
02:25 17.2 95.3 1023.1 1.4 SW 4.6 WSW 0.0 0.1
02:30 17.2 95.6 1023.1 2.7 SW 6.0 S 0.0 0.1
02:35 17.2 96.0 1023.0 2.0 SW 9.2 W 0.0 0.1
02:40 17.2 96.3 1023.0 2.9 SW 9.2 W 0.0 0.1
02:45 17.2 96.5 1022.9 2.1 WSW 7.8 S 0.0 0.1
02:50 17.2 96.7 1022.9 3.5 W 7.8 SW 0.0 0.1
02:55 17.1 96.8 1022.8 2.2 W 10.9 WSW 0.0 0.1
03:00 17.1 96.9 1022.8 2.7 SW 7.1 WNW 0.0 0.1
03:05 17.1 97.0 1022.7 3.5 WSW 10.9 SSW 0.0 0.1
03:10 17.0 97.0 1022.7 4.5 WSW 12.7 SW 0.0 0.1
03:15 17.0 97.0 1022.7 5.0 SW 11.6 SW 0.0 0.1
03:20 17.0 97.0 1022.7 3.2 WSW 9.5 WNW 0.0 0.1
03:25 17.0 97.0 1022.7 3.8 WSW 11.3 WNW 0.0 0.1
03:30 17.0 97.0 1022.7 3.5 W 9.2 WNW 0.0 0.1
03:35 17.0 97.0 1022.5 4.4 W 11.6 W 0.0 0.1
03:40 17.0 97.0 1022.5 5.6 W 14.1 W 0.0 0.1
03:45 17.0 97.0 1022.4 4.8 WSW 11.3 WNW 0.0 0.1
03:50 17.0 97.0 1022.4 5.7 WSW 12.4 SW 0.0 0.1
03:55 16.9 96.9 1022.3 4.7 WSW 11.3 W 0.0 0.1
04:00 16.9 96.9 1022.3 4.1 WSW 10.9 W 0.0 0.1
04:05 16.8 97.0 1022.3 4.0 WSW 13.8 W 0.0 0.1
04:10 16.9 97.1 1022.3 3.7 WSW 8.1 SW 0.0 0.1
04:15 16.9 97.1 1022.3 4.6 WSW 13.4 SW 0.0 0.1
04:20 16.9 97.1 1022.3 4.4 WSW 12.0 SW 0.0 0.1
04:25 16.9 97.1 1022.3 4.4 WSW 13.4 SSW 0.0 0.1
04:30 16.8 97.1 1022.3 3.3 SW 8.5 WNW 0.0 0.1
04:35 16.8 97.2 1022.2 4.8 WSW 13.4 WNW 0.0 0.1
04:40 16.8 97.2 1022.2 4.9 WSW 11.6 WNW 0.0 0.1
04:45 16.8 97.2 1022.1 5.2 WSW 11.3 SW 0.0 0.1
04:50 16.8 97.2 1022.1 4.4 WSW 10.2 SSW 0.0 0.1
04:55 16.8 97.3 1022.2 4.9 WSW 13.1 WNW 0.0 0.2
05:00 16.8 97.3 1022.2 5.2 WSW 12.7 WNW 0.0 0.6
05:05 16.8 97.3 1022.2 4.6 WSW 11.3 WSW 0.0 1.1
05:10 16.8 97.4 1022.2 4.7 WSW 14.5 W 0.0 1.9
05:15 16.8 97.4 1022.2 5.1 WSW 10.6 SW 0.0 3.4
05:20 16.8 97.4 1022.2 3.8 WSW 9.9 W 0.0 4.6
05:25 16.8 97.4 1022.3 5.0 WSW 11.3 WNW 0.0 8.7
05:30 16.8 97.5 1022.3 4.5 W 13.4 W 0.0 15.8
05:35 16.8 97.5 1022.4 4.3 WSW 12.0 WNW 0.0 21.5
05:40 16.8 97.5 1022.4 3.7 WSW 12.7 WNW 0.0 23.9
05:45 16.8 97.5 1022.5 3.9 WSW 11.3 SW 0.0 35.9
05:50 16.8 97.5 1022.5 4.4 SW 10.9 W 0.0 38.9
Máxima 17.3 97.5 1023.5 5.7 WSW 14.5 W 0.0 38.9
Mínima 16.7 94.2 1022.1
Total 0.0